Location: Unspecified
(64.9000°N, 0.0000°E)
Time: 21:17:32
(UTC+00:00)

Altair - Pass Details

Date: 18 June 2019
Orbit: 1501 x 1683 km, 47.2° (Epoch: 17 July)

Event Time Altitude Azimuth Distance (km) Brightness Sun altitude
Rises 20:12:08 0° 190° (S) 4,756 9.8 8.6°
Reaches altitude 10° 20:16:56 10° 170° (S) 3,812 9.2 8.2°
Maximum altitude 20:21:48 15° 139° (SE) 3,449 8.8 7.8°
Drops below altitude 10° 20:26:46 10° 108° (ESE) 3,889 9.1 7.4°
Sets 20:31:44 0° 88° (E) 4,907 9.7 7.0°
